Weather History for Nassau, Bahamas

Change the Weather History Date:

Friday, March 1, 2013

  Actual Average Record
Temperature  
Mean Temperature 72 °F -  
Max Temperature 75 °F 80 °F 84 °F (2001)
Min Temperature 68 °F 64 °F 57 °F (2006)
Cooling Degree Days 6    
Growing Degree Days 22 (Base 50)    
Moisture  
Dew Point 59 °F    
Average Humidity 61    
Maximum Humidity 73    
Minimum Humidity 47    
Precipitation  
Precipitation 0.00 in 0.05 in - ()
Sea Level Pressure  
Sea Level Pressure 29.93 in    
Wind  
Wind Speed 4 mph ()    
Max Wind Speed 12 mph    
Max Gust Speed -    
Visibility 6.7 miles    
Events      
Averages and records for this station are not official NWS values.
T = Trace of Precipitation, MM = Missing Value Source: Averaged Metar Reports

Daily Weather History Graph

Daily Weather History Graph

Search for Another Location

Airport:

Trip Planner

Search our weather history database for the weather conditions in past years. The results will help you decide how hot, cold, wet, or windy it might be!

Date:

Astronomy

Mar. 01, 2013 Rise Set
Actual Time 6:32 AM EST 6:12 PM EST
Civil Twilight 6:09 AM EST 6:35 PM EST
Nautical Twilight 5:42 AM EST 7:01 PM EST
Astronomical Twilight 5:16 AM EST 7:28 PM EST
Moon 10:09 PM EST (3/1) 8:48 AM EST (3/1)
Length of Visible Light 12h 25m
Length of Day
11h 39m
Waning Gibbous, 83% of the Moon is Illuminated
Mar 1
Waning Gibbous
Mar 4
Last Quarter
Mar 11
New
Mar 19
First Quarter
Mar 27
Full

Hourly Weather History & Observations

Time (EST) Temp. Dew Point Humidity Pressure Visibility Wind Dir Wind Speed Gust Speed Precip Events Conditions
12:00 AM 73.4 °F 60.8 °F 65% 29.93 in 6.2 mi NNW 2.3 mph - N/A   Mostly Cloudy
1:00 AM 74 °F 58 °F 48% 29.91 in 9 mi North 4.6 mph - -   Mostly Cloudy
1:00 AM 73.4 °F 59.0 °F 61% 29.91 in 6.2 mi North 4.6 mph - N/A   Mostly Cloudy
2:00 AM 73.4 °F 57.2 °F 57% 29.91 in 6.2 mi WNW 5.8 mph - N/A   Mostly Cloudy
3:00 AM 71.6 °F 59.0 °F 64% 29.91 in 6.2 mi NW 5.8 mph - N/A   Mostly Cloudy
4:00 AM 72 °F 58 °F 51% 29.90 in 9 mi WNW 3.5 mph - -   Mostly Cloudy
4:00 AM 71.6 °F 57.2 °F 60% 29.90 in 6.2 mi WNW 3.5 mph - N/A   Mostly Cloudy
5:00 AM 69.8 °F 59.0 °F 68% 29.89 in 6.2 mi WNW 2.3 mph - N/A   Mostly Cloudy
6:00 AM 71.6 °F 57.2 °F 60% 29.91 in 6.2 mi West 3.5 mph - N/A   Mostly Cloudy
7:00 AM 72 °F 56 °F 47% 29.93 in 9 mi West 4.6 mph - -   Mostly Cloudy
7:00 AM 71.6 °F 55.4 °F 57% 29.93 in 6.2 mi West 4.6 mph - N/A   Mostly Cloudy
8:00 AM 69.8 °F 55.4 °F 60% 29.96 in 6.2 mi NW 2.3 mph - N/A   Overcast
9:00 AM 73.4 °F 55.4 °F 53% 29.95 in 6.2 mi WNW 3.5 mph - N/A   Mostly Cloudy
10:00 AM 74 °F 58 °F 48% 29.96 in 8 mi NW 4.6 mph - -   Overcast
10:00 AM 73.4 °F 59.0 °F 61% 29.96 in 6.2 mi NW 4.6 mph - N/A   Overcast
11:00 AM 73.4 °F 60.8 °F 65% 29.96 in 6.2 mi NNW 4.6 mph - N/A   Overcast
12:00 PM 73.4 °F 60.8 °F 65% 29.95 in 6.2 mi NNW 6.9 mph - N/A   Mostly Cloudy
1:00 PM 75 °F 61 °F 52% 29.93 in 8 mi NNW 9.2 mph - -   Mostly Cloudy
1:00 PM 75.2 °F 60.8 °F 61% 29.93 in 6.2 mi NNW 9.2 mph - N/A   Mostly Cloudy
2:00 PM 73.4 °F 60.8 °F 65% 29.91 in 6.2 mi NNW 9.2 mph - N/A   Mostly Cloudy
3:00 PM 71.6 °F 60.8 °F 69% 29.90 in 6.2 mi North 11.5 mph - N/A   Mostly Cloudy
4:00 PM 73.4 °F 59.0 °F 61% 29.90 in 6.2 mi North 9.2 mph - N/A   Mostly Cloudy
5:00 PM 71.6 °F 60.8 °F 69% 29.91 in 6.2 mi North 4.6 mph - N/A   Mostly Cloudy
6:00 PM 71.6 °F 60.8 °F 69% 29.92 in 6.2 mi North 4.6 mph - N/A   Mostly Cloudy
7:00 PM 73.4 °F 60.8 °F 65% 29.93 in 6.2 mi NNW 6.9 mph - N/A   Mostly Cloudy
8:00 PM 71.6 °F 57.2 °F 60% 29.94 in 6.2 mi NNW 3.5 mph - N/A   Mostly Cloudy
9:00 PM 71.6 °F 57.2 °F 60% 29.94 in 6.2 mi WNW 3.5 mph - N/A   Mostly Cloudy
10:00 PM 71 °F 61 °F 63% 29.96 in 8 mi North 5.8 mph - -   Mostly Cloudy
10:00 PM 71.6 °F 60.8 °F 69% 29.96 in 6.2 mi North 5.8 mph - N/A   Mostly Cloudy
11:00 PM 69.8 °F 60.8 °F 73% 29.94 in 6.2 mi NNW 5.8 mph - N/A   Mostly Cloudy